TimeCST,TemperatureF,Dew PointF,Humidity,Sea Level PressureIn,VisibilityMPH,Wind Direction,Wind SpeedMPH,Gust SpeedMPH,PrecipitationIn,Events,Conditions,WindDirDegrees,DateUTC
12:52 AM,51.1,30.0,44,29.61,10.0,South,15.0,-,N/A,,Mostly Cloudy,190,2011-11-15 06:52:00
1:52 AM,50.0,30.9,48,29.62,10.0,SSW,12.7,-,N/A,,Mostly Cloudy,200,2011-11-15 07:52:00
2:52 AM,51.8,30.2,44,29.60,10.0,SW,16.1,26.5,N/A,,Scattered Clouds,220,2011-11-15 08:52:00
3:52 AM,51.1,32.0,48,29.60,10.0,WSW,17.3,26.5,N/A,,Partly Cloudy,240,2011-11-15 09:52:00
4:52 AM,48.9,30.9,50,29.63,10.0,West,12.7,-,N/A,,Partly Cloudy,260,2011-11-15 10:52:00
5:52 AM,46.4,30.2,53,29.65,10.0,West,10.4,18.4,N/A,,Partly Cloudy,260,2011-11-15 11:52:00
6:52 AM,44.6,28.4,53,29.68,10.0,WNW,9.2,-,N/A,,Scattered Clouds,290,2011-11-15 12:52:00
7:52 AM,39.9,28.0,63,29.72,10.0,NW,8.1,-,N/A,,Mostly Cloudy,310,2011-11-15 13:52:00
8:52 AM,44.1,28.9,55,29.73,10.0,North,9.2,-,N/A,,Mostly Cloudy,350,2011-11-15 14:52:00
9:52 AM,48.0,27.0,44,29.77,10.0,North,10.4,-,N/A,,Mostly Cloudy,350,2011-11-15 15:52:00
10:52 AM,48.9,28.0,44,29.81,10.0,NNW,16.1,-,N/A,,Scattered Clouds,340,2011-11-15 16:52:00
11:52 AM,51.1,28.9,43,29.82,10.0,North,12.7,-,N/A,,Partly Cloudy,350,2011-11-15 17:52:00
12:52 PM,53.1,28.9,40,29.81,10.0,North,15.0,-,N/A,,Partly Cloudy,350,2011-11-15 18:52:00
1:52 PM,55.0,28.9,37,29.81,10.0,North,12.7,-,N/A,,Partly Cloudy,360,2011-11-15 19:52:00
2:52 PM,55.0,25.0,31,29.83,10.0,NW,19.6,24.2,N/A,,Clear,320,2011-11-15 20:52:00
3:52 PM,52.0,24.1,34,29.87,10.0,NNW,15.0,-,N/A,,Clear,340,2011-11-15 21:52:00
4:52 PM,48.0,24.1,39,29.92,10.0,NNW,13.8,-,N/A,,Clear,330,2011-11-15 22:52:00
5:52 PM,45.0,23.0,42,29.96,10.0,NNW,17.3,-,N/A,,Clear,330,2011-11-15 23:52:00
6:52 PM,43.0,21.9,43,30.00,10.0,NNW,10.4,-,N/A,,Clear,340,2011-11-16 00:52:00
7:52 PM,42.1,19.9,41,30.03,10.0,North,11.5,-,N/A,,Clear,350,2011-11-16 01:52:00
8:52 PM,37.0,21.0,52,30.05,10.0,North,9.2,-,N/A,,Clear,10,2011-11-16 02:52:00
9:52 PM,34.0,19.0,54,30.07,10.0,North,6.9,-,N/A,,Clear,10,2011-11-16 03:52:00
10:52 PM,32.0,19.9,61,30.09,10.0,NW,4.6,-,N/A,,Clear,320,2011-11-16 04:52:00
11:52 PM,30.0,17.1,59,30.11,10.0,NW,9.2,-,N/A,,Clear,320,2011-11-16 05:52:00